DW8214 Weather Reports


time (UTC)temp
C
wind
direction
speed
KPH
gust
KPH
rain 1hr
cm
rain 24hr
cm
rain mn
cm
humidity
%
barometer
mb
20181211190015 15 273 0.0 0.0 0.00 0.00 0.00 82 1018.5
20181211184512 15 273 0.0 0.0 0.00 0.00 0.00 82 1018.3
20181211183017 16 273 0.0 0.0 0.00 0.00 0.00 81 1018.2
20181211181533 16 273 0.0 0.0 0.00 0.00 0.00 80 1018.1
20181211180030 16 273 0.0 0.0 0.00 0.00 0.00 79 1017.7
20181211174537 17 273 0.0 0.0 0.00 0.00 0.00 77 1017.5
20181211173009 17 273 0.0 0.0 0.00 0.00 0.00 77 1017.4
20181211171510 17 273 0.0 0.0 0.00 0.00 0.00 76 1017.3
20181211170013 17 273 0.0 0.0 0.00 0.00 0.00 76 1017.3
20181211164508 18 273 0.0 0.0 0.00 0.00 0.00 77 1017.2
20181211163020 18 273 0.0 0.0 0.00 0.00 0.00 78 1017.2
20181211161515 18 273 0.0 0.0 0.00 0.00 0.00 78 1017.1
20181211160020 18 273 0.0 0.0 0.00 0.00 0.00 78 1017.1
20181211154509 18 194 0.0 0.0 0.00 0.00 0.00 82 1017.0
20181211153153 18 227 0.0 0.0 0.00 0.00 0.00 83 1017.1
20181211151653 17 244 0.0 0.0 0.00 0.00 0.00 85 1016.8
20181211150244 17 241 0.0 9.7 0.00 0.00 0.00 86 1016.9
20181211144724 17 232 0.0 1.6 0.00 0.00 0.00 86 1017.0
20181211143218 17 234 0.0 9.7 0.00 0.00 0.00 86 1017.1
20181211141711 17 238 0.0 9.7 0.00 0.00 0.00 87 1017.1
20181211140147 17 180 1.6 9.7 0.00 0.00 0.00 86 1017.1
20181211134724 17 196 0.0 11.3 0.00 0.00 0.00 86 1017.1
20181211133123 17 215 0.0 8.0 0.00 0.00 0.00 86 1017.1
20181211131701 17 180 1.6 8.0 0.00 0.00 0.00 86 1017.5
20181211130119 17 216 0.0 6.4 0.00 0.00 0.00 87 1017.4
20181211124707 17 205 0.0 4.8 0.00 0.00 0.00 86 1017.7
20181211123121 17 209 0.0 8.0 0.00 0.00 0.00 86 1017.9
20181211121615 17 204 0.0 3.2 0.00 0.00 0.00 86 1018.1
20181211120108 17 194 0.0 0.0 0.00 0.00 0.00 85 1018.2
20181211114643 17 194 0.0 0.0 0.00 0.00 0.00 85 1018.4
20181211113227 17 194 0.0 8.0 0.00 0.00 0.00 85 1018.7
20181211111651 17 176 0.0 9.7 0.00 0.00 0.00 85 1018.9
20181211110238 17 194 0.0 9.7 0.00 0.00 0.00 85 1018.9
20181211104641 17 209 0.0 8.0 0.00 0.00 0.00 86 1019.0
20181211103113 17 224 0.0 8.0 0.00 0.00 0.00 87 1019.0
20181211101643 16 198 0.0 4.8 0.00 0.00 0.00 87 1019.0
20181211100123 16 160 0.0 0.0 0.00 0.00 0.00 87 1018.7
20181211094621 16 160 0.0 0.0 0.00 0.00 0.00 87 1018.5
20181211093039 16 160 0.0 0.0 0.00 0.00 0.00 87 1018.5
20181211091610 15 160 0.0 0.0 0.00 0.00 0.00 87 1018.2
20181211090056 15 160 0.0 0.0 0.00 0.00 0.00 87 1018.1
20181211084538 15 160 0.0 0.0 0.00 0.00 0.00 87 1018.1
20181211083101 15 160 0.0 0.0 0.00 0.00 0.00 86 1017.8
20181211081523 15 160 0.0 0.0 0.00 0.00 0.00 86 1017.6
20181211080020 15 160 0.0 0.0 0.00 0.00 0.00 86 1017.4
20181211074544 15 160 0.0 0.0 0.00 0.00 0.00 86 1017.2
20181211073038 15 160 0.0 0.0 0.00 0.00 0.00 86 1016.9
20181211071541 15 160 0.0 0.0 0.00 0.00 0.00 87 1016.9
20181211070014 15 160 0.0 0.0 0.00 0.00 0.00 88 1016.7
20181211064516 14 160 0.0 0.0 0.00 0.00 0.00 89 1016.7
20181211063030 14 160 0.0 0.0 0.00 0.00 0.00 89 1016.9
20181211061512 14 160 0.0 0.0 0.00 0.00 0.00 90 1016.8
20181211060010 14 160 0.0 0.0 0.00 0.00 0.00 91 1016.8
20181211054511 14 160 0.0 0.0 0.00 0.00 0.00 91 1016.7
20181211053011 14 160 0.0 0.0 0.00 0.00 0.00 92 1016.5
20181211051511 14 160 0.0 0.0 0.00 0.00 0.00 92 1016.6
20181211050009 14 112 0.0 0.0 0.00 0.00 0.00 92 1016.6
20181211044507 14 112 0.0 0.0 0.00 0.00 0.00 92 1016.5
20181211043003 15 112 0.0 0.0 0.00 0.00 0.00 92 1016.7
20181211041504 15 112 0.0 0.0 0.00 0.00 0.00 92 1016.6
20181211040010 15 112 0.0 0.0 0.00 0.00 0.00 92 1016.7
20181211034501 15 112 0.0 0.0 0.00 0.00 0.00 92 1016.7
20181211033210 15 112 0.0 0.0 0.00 0.00 0.00 92 1016.8
20181211031659 15 112 0.0 0.0 0.00 0.00 0.00 92 1016.9
20181211030223 15 112 0.0 0.0 0.00 0.00 0.00 92 1017.1
20181211024713 15 112 0.0 0.0 0.00 0.00 0.00 92 1017.1
20181211023134 15 112 0.0 0.0 0.00 0.00 0.00 92 1017.1
20181211021651 15 112 0.0 0.0 0.00 0.00 0.00 92 1017.1
20181211020211 15 112 0.0 0.0 0.00 0.00 0.00 92 1017.2
20181211014650 15 112 0.0 0.0 0.00 0.00 0.00 91 1017.2
20181211013138 15 112 0.0 0.0 0.00 0.00 0.00 91 1017.3
20181211011644 15 112 0.0 0.0 0.00 0.00 0.00 91 1017.4
20181211010126 15 112 0.0 0.0 0.00 0.00 0.00 91 1017.5
20181211004635 15 112 0.0 0.0 0.00 0.00 0.00 91 1017.5
20181211003122 15 112 0.0 0.0 0.00 0.00 0.00 91 1017.7
20181211001623 15 112 0.0 0.0 0.00 0.00 0.00 90 1017.8
20181211000155 15 112 0.0 0.0 0.00 0.00 0.00 90 1017.8
20181210234601 14 65 0.0 0.0 0.00 0.00 0.00 90 1018.1
20181210233140 14 65 0.0 0.0 0.00 0.00 0.00 89 1018.3
20181210231650 14 65 0.0 0.0 0.00 0.00 0.00 89 1018.4
20181210230145 14 65 0.0 0.0 0.00 0.00 0.00 88 1018.4
20181210224602 14 65 0.0 0.0 0.00 0.00 0.00 87 1018.4
20181210223119 14 65 0.0 0.0 0.00 0.00 0.00 86 1018.3
20181210221608 14 65 0.0 1.6 0.00 0.00 0.00 85 1018.2
20181210220103 14 65 0.0 0.0 0.00 0.00 0.00 84 1018.3
20181210214552 14 65 0.0 1.6 0.00 0.00 0.00 83 1018.3
20181210213209 13 65 0.0 4.8 0.00 0.00 0.00 83 1018.3
20181210211559 13 86 0.0 0.0 0.00 0.00 0.00 82 1018.3
20181210210059 13 86 0.0 0.0 0.00 0.00 0.00 81 1018.4
20181210204600 13 86 0.0 0.0 0.00 0.00 0.00 80 1018.4
20181210203116 14 86 0.0 0.0 0.00 0.00 0.00 80 1018.5
20181210201610 14 86 0.0 0.0 0.00 0.00 0.00 79 1018.5
20181210200120 14 86 0.0 0.0 0.00 0.00 0.00 77 1018.4
20181210194617 15 86 0.0 0.0 0.00 0.00 0.00 76 1018.4
20181210193120 15 101 0.0 0.0 0.00 0.00 0.00 74 1018.4
20181210191600 15 101 0.0 0.0 0.00 0.00 0.00 73 1018.5